Miscellaneous Local Product
Issued by NWS North Platte, NE

Home | Current Version | Previous Version | Text Only | Print | Product List | Glossary On
Versions: 1 2 3 4 5 6 7 8 9 10 11 12 13 14 15 16 17 18 19 20 21 22 23 24 25 26 27 28 29 30 31 32 33 34 35 36 37 38 39 40 41 42 43 44 45 46 47 48 49 50
439
AXUS43 KLBF 251110
MISLBF


WESTERN AND NORTH CENTRAL NEBRASKA HOURLY WEATHER ROUNDUP
NATIONAL WEATHER SERVICE NORTH PLATTE NE
600 AM CDT SAT MAR 25 2017

NOTE: "FAIR" INDICATES FEW OR NO CLOUDS BELOW 12,000 FEET WITH NO
SIGNIFICANT WEATHER AND/OR OBSTRUCTIONS TO VISIBILITY.

NOTE: STATIONS NOT REPORTING VARIABLES SUCH AS SKY/WEATHER OR
PRESSURE ARE PROVIDED BY RAWS AND APRS NETWORKS AND ARE NOT UNDER
NATIONAL WEATHER SERVICE QUALITY CONTROL.

...OBSERVATIONS IN AND NEAR THE EASTERN PANHANDLE OF NEBRASKA...

CITY           SKY/WX    TMP DP  RH WIND       PRES   REMARKS
PINE RIDGE     CLOUDY    37  30  75 CALM      30.01F
CHADRON        CLOUDY    33  28  81 CALM      30.00S
ALLIANCE       CLOUDY    23  21  92 SE7       30.03S WCI  15
SIDNEY         CLOUDY    21  19  92 SW6       30.06F WCI  13
CRESCENT LAKE    N/A     50  32  50 CALM        N/A
$$

...OBSERVATIONS IN NORTHERN NEBRASKA AND FAR SOUTHERN SOUTH DAKOTA...

CITY           SKY/WX    TMP DP  RH WIND       PRES   REMARKS
WINNER         FOG       32  31  96 SE12      30.07F VSB 1/4 WCI  23
VALENTINE      CLOUDY    20  17  88 CALM      30.06S
THEDFORD       CLOUDY    26  24  95 CALM      30.06F
AINSWORTH      SNOW      29  29 100 NE5       30.06S VSB 1/4 WCI  24
O`NEILL        CLOUDY    35  35  99 N7        30.08R FOG     WCI  29
ORD            FOG       36  34  92 NE10      30.06R VSB 3/4 WCI  28
BROKEN BOW     CLOUDY    34  32  92 N10       30.05R WCI  26
VALENTINE NWR    N/A     33  30  90 NE6         N/A  WCI  27
HALSEY           N/A     28  27  96 CALM        N/A
BUTTE            N/A     33  31  94 N6          N/A  WCI  27
CHAMBERS         N/A     35  34  98 N3          N/A
EWING            N/A     34  33  96 NE3         N/A
$$

...OBSERVATIONS IN SOUTHWEST NEBRASKA AND FAR NORTHEAST COLORADO...

CITY           SKY/WX    TMP DP  RH WIND       PRES   REMARKS
HOLYOKE        FAIR      34  32  93 W8        30.07F WCI  27
IMPERIAL       CLOUDY    32  27  81 NW8       30.06R WCI  25
OGALLALA       CLOUDY    30  28  90 CALM      30.06S
NORTH PLATTE   CLOUDY    27  23  85 W5        30.05F WCI  22
MCCOOK         CLEAR     34  32  92 N6        30.03F WCI  29
LEXINGTON      CLOUDY    35  32  91 N10       30.05R WCI  27
STAPLETON        N/A     27  25  93 CALM        N/A
GOTHENBURG       N/A     35  31  87 NW7         N/A  WCI  29
CALLAWAY         N/A     32  32 100 N10         N/A  WCI  24
$$

...OBSERVATIONS IN CENTRAL LINCOLN COUNTY AREA...

CITY           SKY/WX    TMP DP  RH WIND       PRES   REMARKS
N.P. AIRPORT   CLOUDY    27  23  85 W5        30.05F WCI  22
N.P. DOWNTOWN    N/A     30  27  90 CALM        N/A
N.P. SOUTHEAST   N/A     31  27  85 CALM        N/A
N.P. HILLCREST   N/A     29  27  90 CALM        N/A
$$

...SOME OBSERVATIONS FROM AROUND THE REGION...

CITY           SKY/WX    TMP DP  RH WIND       PRES   REMARKS
DENVER         CLOUDY    30  25  81 S9        30.05S WCI  22
LIMON          CLOUDY    26  24  92 N5        30.08S WCI  20
ASPEN          CLOUDY    29  21  72 S5        30.18S WCI  24
LARAMIE        CLOUDY    33  20  58 S6        30.05F WCI  28
GILLETTE       CLOUDY    44  30  57 S18       29.87S
CHEYENNE       CLOUDY    29  24  82 SW9       30.02F WCI  20
SCOTTSBLUFF    CLOUDY    30  25  81 E8        30.03S WCI  22
GRAND ISLAND   LGT RAIN  36  36 100 N17       30.03S FOG     WCI  26
OMAHA          RAIN      41  37  86 N16       29.95R FOG
SIOUX FALLS    CLOUDY    35  34  96 NE15      30.11R FOG     WCI  25
PIERRE         FOG       32  31  96 SE9       30.08R VSB 3/4 WCI  24
RAPID CITY     CLOUDY    34  27  75 S12       29.94F WCI  25
BISMARCK       CLOUDY    31  31 100 SE13      30.05F FOG     WCI  21
KANSAS CITY    CLOUDY    54  50  86 SE8       29.77R
HILL CITY      CLOUDY    42  39  89 N9        30.00S
WICHITA        LGT RAIN  43  42  97 NW26G33   29.88R
DODGE CITY     MOCLDY    42  39  89 N13       29.97F
OKLAHOMA CITY  CLOUDY    47  43  86 NW22G33   29.91R
DALLAS         PTCLDY    57  45  64 NW14      29.93R
AMARILLO       CLEAR     37  33  85 NW16      30.06S WCI  28
$$




USA.gov is the U.S. government's official web portal to all federal, state and local government web resources and services.